Worcester, MA

8:38 PM EDT on September 24, 2016 (GMT -0400)
Worcester Regional

Weather History for KORH - October, 2013

Change the Weather History Date:

Sunday, October 20, 2013

  Actual Average Record
Temperature  
Mean Temperature 49 °F 49 °F  
Max Temperature 57 °F 57 °F 76 °F (1963)
Min Temperature 41 °F 40 °F 21 °F (1972)
Degree Days  
Heating Degree Days 16 16  
Month to date heating degree days 179 267  
Since 1 July heating degree days 368 460  
Cooling Degree Days 0 0  
Month to date cooling degree days 1 0  
Year to date cooling degree days 572 468  
Moisture  
Dew Point 40 °F    
Average Humidity 64    
Maximum Humidity 93    
Minimum Humidity 35    
Precipitation  
Precipitation 0.02 in 0.14 in 3.39 in (1996)
Month to date precipitation 1.28 3.10  
Year to date precipitation 37.53 38.39  
Snow  
Snow 0.00 in 0.00 in 0.80 in (1926)
Month to date snowfall 0.0 0.1  
Since 1 July snowfall 0.0 0.1  
Since 1 September snowfall 0.0 0.1  
Snow Depth 0.00 in    
Sea Level Pressure  
Sea Level Pressure 29.82 in    
Wind  
Wind Speed 11 mph (West)    
Max Wind Speed 24 mph    
Max Gust Speed 33 mph    
Visibility 9 miles    
Events Rain    
T = Trace of Precipitation, MM = Missing Value Source: NWS Daily Summary

Daily Weather History Graph

Daily Weather History Graph

Search for Another Location

Airport or City:

Trip Planner

Search our weather history database for the weather conditions in past years. The results will help you decide how hot, cold, wet, or windy it might be!

Date:

Astronomy

Oct. 20, 2013 Rise Set
Actual Time 7:06 AM EDT 5:57 PM EDT
Civil Twilight 6:37 AM EDT 6:25 PM EDT
Nautical Twilight 6:05 AM EDT 6:58 PM EDT
Astronomical Twilight 5:32 AM EDT 7:30 PM EDT
Moon 7:01 PM EDT (10/20) 8:43 AM EDT (10/20)
Length of Visible Light 11h 48m
Length of Day
10h 51m
Full, 97% of the Moon is Illuminated
Oct 20
Full
Oct 26
Last Quarter
Nov 3
New
Nov 10
First Quarter
Nov 17
Full

Hourly Weather History & Observations

Time (EDT) Temp. Windchill Dew Point Humidity Pressure Visibility Wind Dir Wind Speed Gust Speed Precip Events Conditions
12:54 AM 51.1 °F - 46.9 °F 86% 29.74 in 7.0 mi SSW 6.9 mph - 0.01 in Rain Light Rain
1:54 AM 50.0 °F - 48.9 °F 96% 29.72 in 5.0 mi SW 6.9 mph - 0.02 in Rain Light Rain
2:36 AM 51.1 °F - 50.0 °F 96% 29.71 in 8.0 mi WSW 9.2 mph - 0.01 in   Overcast
2:54 AM 51.1 °F - 50.0 °F 96% 29.71 in 9.0 mi WSW 10.4 mph - 0.01 in   Mostly Cloudy
3:01 AM 51.1 °F - 50.0 °F 96% 29.70 in 9.0 mi WSW 12.7 mph - N/A   Mostly Cloudy
3:14 AM 51.1 °F - 50.0 °F 96% 29.70 in 9.0 mi WSW 11.5 mph - N/A   Overcast
3:23 AM 51.1 °F - 50.0 °F 96% 29.70 in 9.0 mi WSW 12.7 mph - N/A   Mostly Cloudy
3:35 AM 51.1 °F - 50.0 °F 96% 29.70 in 9.0 mi West 11.5 mph - N/A   Mostly Cloudy
3:42 AM 51.1 °F - 50.0 °F 96% 29.70 in 8.0 mi WSW 10.4 mph - N/A   Mostly Cloudy
3:52 AM 50.0 °F - 48.2 °F 94% 29.70 in 8.0 mi West 10.4 mph - N/A   Partly Cloudy
3:54 AM 50.0 °F - 48.9 °F 96% 29.71 in 8.0 mi West 9.2 mph - N/A   Partly Cloudy
4:30 AM 50.0 °F - 48.9 °F 96% 29.71 in 10.0 mi West 11.5 mph - N/A   Mostly Cloudy
4:54 AM 50.0 °F - 48.9 °F 96% 29.73 in 10.0 mi West 13.8 mph - N/A   Mostly Cloudy
5:10 AM 50.0 °F - 48.0 °F 93% 29.72 in 10.0 mi West 11.5 mph - N/A   Scattered Clouds
5:54 AM 48.9 °F - 46.9 °F 93% 29.75 in 10.0 mi West 10.4 mph - N/A   Scattered Clouds
6:54 AM 46.0 °F 39.3 °F 37.9 °F 73% 29.78 in 10.0 mi WNW 16.1 mph 26.5 mph N/A   Clear
7:54 AM 45.0 °F 38.9 °F 37.9 °F 76% 29.81 in 10.0 mi West 12.7 mph - N/A   Clear
8:54 AM 46.9 °F - 37.0 °F 68% 29.83 in 10.0 mi West 15.0 mph 24.2 mph N/A   Clear
9:54 AM 48.9 °F - 35.1 °F 59% 29.85 in 10.0 mi West 17.3 mph 25.3 mph N/A   Clear
10:54 AM 52.0 °F - 34.0 °F 50% 29.86 in 10.0 mi WNW 13.8 mph 28.8 mph N/A   Clear
11:54 AM 53.1 °F - 32.0 °F 45% 29.87 in 10.0 mi WNW 19.6 mph 29.9 mph N/A   Clear
12:54 PM 55.0 °F - 30.9 °F 40% 29.87 in 10.0 mi West 15.0 mph 27.6 mph N/A   Clear
1:54 PM 55.9 °F - 28.9 °F 36% 29.87 in 10.0 mi West 17.3 mph 23.0 mph N/A   Clear
2:54 PM 57.0 °F - 30.0 °F 36% 29.88 in 10.0 mi West 15.0 mph 24.2 mph N/A   Clear
3:54 PM 55.9 °F - 28.9 °F 36% 29.90 in 10.0 mi West 10.4 mph - N/A   Scattered Clouds
4:54 PM 54.0 °F - 28.0 °F 37% 29.92 in 10.0 mi WNW 15.0 mph - N/A   Clear
5:54 PM 50.0 °F - 30.0 °F 46% 29.94 in 10.0 mi WNW 5.8 mph - N/A   Clear
6:54 PM 48.0 °F - 30.9 °F 52% 29.97 in 10.0 mi WNW 4.6 mph - N/A   Clear
7:54 PM 48.0 °F - 30.0 °F 50% 29.99 in 10.0 mi West 5.8 mph - N/A   Clear
8:54 PM 41.0 °F 36.4 °F 32.0 °F 70% 30.01 in 10.0 mi WNW 6.9 mph - N/A   Clear
9:54 PM 45.0 °F 41.8 °F 30.9 °F 58% 30.03 in 10.0 mi West 5.8 mph - N/A   Clear
10:54 PM 45.0 °F 41.8 °F 32.0 °F 60% 30.04 in 10.0 mi West 5.8 mph - N/A   Clear
11:54 PM 44.1 °F 39.0 °F 32.0 °F 63% 30.04 in 10.0 mi West 9.2 mph - N/A   Clear